Regional Weather Roundup
Issued by NWS

Home | Current Version | Previous Version | Text Only | Print | Product List | Glossary Off
Versions: 1 2 3 4 5 6 7 8 9 10 11 12 13 14 15 16 17 18 19 20 21 22 23 24 25 26 27 28 29 30 31 32 33 34 35 36 37 38 39 40 41 42 43 44 45 46 47 48 49 50

000
ASUS43 KMPX 212010
RWRMN
WEATHER ROUNDUP FOR MINNESOTA
NATIONAL WEATHER SERVICE TWIN CITIES/CHANHASSEN MN
200 PM CST TUE FEB 21 2017


NOTE: "FAIR" INDICATES FEW OR NO CLOUDS BELOW 12,000 FEET WITH NO
SIGNIFICANT WEATHER AND/OR OBSTRUCTIONS TO VISIBILITY. N/A MEANS
CURRENT SKY AND/OR WEATHER CONDITIONS ARE NOT AVAILABLE.

MNZ060>063-068>070-212100-
   Twin Cities Metro

CITY           SKY/WX    TMP DP  RH WIND       PRES   REMARKS
TWIN CITIES    PTSUNNY   61  36  39 S13G26    29.74F
ST PAUL        PTSUNNY   59  41  51 S10G25    29.75F
CRYSTAL        PTSUNNY   60  36  40 S12       29.72F
BLAINE         PTSUNNY   61  37  41 S16G25    29.73F
LAKEVILLE      MOSUNNY   57  43  58 S17       29.74F
EDEN PRAIRIE   MOSUNNY   60  40  47 S22G29    29.72F
SOUTH ST PAUL  MOSUNNY   61  40  45 S16G24    29.75F
LAKE ELMO      FAIR      55  43  62 S16G23    29.76F
$$
MNZ001>005-007-008-013>017-022>024-027-028-212100-
   Northwest Minnesota

CITY           SKY/WX    TMP DP  RH WIND       PRES   REMARKS
BEMIDJI        SUNNY     47  33  59 SW7       29.63F
HALLOCK        MOSUNNY   36  36 100 CALM      29.66F FOG
ROSEAU         FOG       34  30  86 E7        29.65F VSB<1/4 WCI  28
WARROAD        CLOUDY    36  30  80 NE7       29.67F FOG
THIEF RVR FALL SUNNY     44  38  79 SE5       29.64F
CROOKSTON      SUNNY     43  37  81 SW6       29.65F
FOSSTON        SUNNY     46  43  87 SW10      29.65S
DETROIT LAKES  MOSUNNY   45  37  76 SW8       29.66S
MOORHEAD       MOSUNNY   45  37  76 W9        29.67S
PARK RAPIDS    CLOUDY    45  35  68 S5        29.64F
MAHNOMEN       FAIR      45  38  76 SW10      29.64S
$$
MNZ006-009>011-018-025>026-212100-
   North Central Minnesota

CITY           SKY/WX    TMP DP  RH WIND       PRES   REMARKS
BAUDETTE       MOSUNNY   38  33  82 E6        29.66F
FLAG ISLAND    CLOUDY    32  30  93 SE6       29.68F FOG     WCI  26
INTL FALLS     CLOUDY    42  34  73 SE5       29.69F
WASKISH        SUNNY     46  39  76 NE8       29.64F
BIG FORK       SUNNY     48  36  61 SE3       29.65F
LONGVILLE      MOSUNNY   48  36  61 S8        29.65F
GRAND RAPIDS   CLOUDY    46  33  60 SE8       29.68F
CRANE LAKE     SUNNY     43  36  75 CALM      29.72F
ORR            SUNNY     46  34  61 CALM      29.66F
COOK           SUNNY     48  36  61 SE3       29.68F
WALKER         FAIR      47  35  62 SW8       29.64F
$$
MNZ012-019>021-037-212100-
   Northeast Minnesota

CITY           SKY/WX    TMP DP  RH WIND       PRES   REMARKS
DULUTH         MOSUNNY   47  36  65 S13       29.70F
ELY            SUNNY     46  32  57 CALM      29.71F
HIBBING        MOSUNNY   42  35  76 SE8       29.68F
EVELETH        SUNNY     45  34  64 SE3       29.70F
DULUTH HARBOR  PTSUNNY   41  37  87 CALM      29.73F
TWO HARBORS    MOSUNNY   48  39  71 S7        29.71F
SILVER BAY     SUNNY     48  37  66 SE6       29.70F
GRAND MARAIS     N/A     39  36  89 SW12      29.75F
G MARAIS ARPRT MOSUNNY   45  28  53 SW3       29.72F
$$
MNZ029>031-032-039>041-046>048-054>057-064-212100-
   West Central Minnesota

CITY           SKY/WX    TMP DP  RH WIND       PRES   REMARKS
FERGUS FALLS   CLOUDY    48  41  76 SW8       29.70F
WHEATON        CLOUDY    55  39  54 SW6       29.69S
MORRIS         MOSUNNY   54  43  66 W9        29.68F
ALEXANDRIA     CLOUDY    51  40  65 SW14      29.69S
ELBOW LAKE     FAIR      50  41  70 SW8       29.68F
WADENA         PTSUNNY   48  37  66 SW8       29.65F
GLENWOOD       CLOUDY    52  43  71 SW9       29.70S
APPLETON       CLOUDY    57  41  54 W9        29.68F
BENSON         PTSUNNY   57  37  47 W9        29.71S
ORTONVILLE       N/A     57  41  54 CALM      29.68F
WILLMAR        FAIR      54  46  76 CALM      29.71F
$$
MNZ033>034-036-042>043-049>051-058-059-212100-
   Central Minnesota

CITY           SKY/WX    TMP DP  RH WIND       PRES   REMARKS
ST CLOUD       PTSUNNY   55  43  63 SW15      29.70F
SAUK CENTRE    FAIR      52  42  70 SW8       29.69S
PAYNESVILLE    MOSUNNY   55  42  62 SW14      29.70S
AITKIN         PTSUNNY   46  36  66 S8        29.67S
PINE RIVER     PTSUNNY   46  39  76 S3        29.70F
BRAINERD       CLOUDY    51  39  63 S10G22    29.67F
STAPLES        MOSUNNY   50  37  62 S9        29.66F
LONG PRAIRIE   FAIR      50  39  66 S13       29.68F
LITTLE FALLS   CLOUDY    52  37  58 S10       29.69F
LITCHFIELD     PTSUNNY   57  46  67 SW5       29.71F
BUFFALO        CLOUDY    56  43  62 S5        29.73F
MAPLE LAKE     MOSUNNY   56  46  67 S7        29.73F
HUTCHINSON     SUNNY     59  45  61 SW10G22   29.73F
$$
MNZ037-044-045-052-053-212100-
   East Central Minnesota

CITY           SKY/WX    TMP DP  RH WIND       PRES   REMARKS
PRINCETON      PTSUNNY   59  43  55 S15G21    29.71F
MORA           MOSUNNY   43  39  87 SE7       29.73F
CAMBRIDGE      PTSUNNY   55  41  58 SE9       29.70F
RUSH CITY      PTSUNNY   52  41  66 S13G18    29.73F
MOOSE LAKE     MOSUNNY   48  36  61 SW9       29.69F
HINCKLEY       FAIR      48  39  71 S8        29.72F
CLOQUET        MOSUNNY   48  32  53 SE5       29.69F
MCGREGOR       MOSUNNY   48  36  61 S15       29.69F
$$
MNZ071>073-080-081-089-090-097-098-212100-
   Southwest Minnesota

CITY           SKY/WX    TMP DP  RH WIND       PRES   REMARKS
MONTEVIDEO     CLOUDY    54  45  71 W5        29.71S
GRANITE FALLS  MOSUNNY   60  47  61 S10G16    29.71F
CANBY          PTSUNNY   61  42  50 SW12      29.69F
MARSHALL       MOSUNNY   60  41  49 SW18      29.70F
REDWOOD FALLS  PTSUNNY   61  42  49 SW20      29.70F
OLIVIA         MOSUNNY   55  45  67 SW14      29.71F
PIPESTONE      SUNNY     59  37  44 SW14      29.74F
WINDOM         SUNNY     63  41  45 SW24G33   29.74F
WORTHINGTON    SUNNY     60  45  57 S22G29    29.75F
JACKSON        SUNNY     61  39  44 SW23G31   29.77F
TRACY          SUNNY     60  45  56 S21G26    29.71F
SLAYTON        SUNNY     59  44  57 SW21G31   29.74S
$$
MNZ065>067-074>077-082>085-091>093-212100-
   South Central Minnesota

CITY           SKY/WX    TMP DP  RH WIND       PRES   REMARKS
MANKATO          N/A     59  46  62 S14G25    29.75F
NEW ULM        MOSUNNY   63  45  51 SW18G25   29.72F
ST JAMES       MOSUNNY   63  45  51 S14G26    29.75F
FAIRMONT       SUNNY     62  46  55 S20       29.77F
GLENCOE        PTSUNNY   59  49  69 S15       29.72F
FARIBAULT      MOSUNNY   57  43  58 S12G21    29.78F
OWATONNA       MOSUNNY   59  43  55 S20G26    29.79F
WASECA         MOSUNNY   57  45  62 S23G31    29.79F
ALBERT LEA     SUNNY     59  43  55 S13G23    29.81F
$$
MNZ078>079-086>088-094>096-212100-
   Southeast Minnesota

CITY           SKY/WX    TMP DP  RH WIND       PRES   REMARKS
ROCHESTER      SUNNY     55  44  66 S20       29.83F
RED WING       MOSUNNY   57  39  51 S7        29.79F
STANTON        MOSUNNY   61  42  49 S13G22    29.76F
DODGE CENTER   SUNNY     55  45  67 S23       29.81F
WINONA         MOSUNNY   61  37  41 S5        29.85F
AUSTIN         SUNNY     57  45  62 S12       29.84F
PRESTON        SUNNY     55  43  63 S17       29.86F
$$
ABBREVIATIONS USED IN REMARKS
   TC - TEMPERATURES IN CELSIUS
  WCI - WIND CHILL INDEX
   HX - HEAT INDEX
  VSB - VISIBILITY
$$




USA.gov is the U.S. government's official web portal to all federal, state and local government web resources and services.